Home   Weather   Réunion (French)   Saint-Denis   Past weeks
Flag for Réunion (French)

Past Weather in Saint-Denis, Réunion (French) — Yesterday and Last 2 Weeks

Currently: 77 °F. Partly sunny. (Weather station: Saint-Denis / Gillot, Réunion (French)). See more current weather

Past Weather in Saint-Denis — Graph

°F

Saint-Denis Temperature Yesterday

Maximum temperature yesterday: 79 °F (at 11:00 am)
Minimum temperature yesterday: 68 °F (at 7:30 am)
Average temperature yesterday: 73 °F

High & Low Weather Summary for the Past Weeks

 TemperatureHumidityPressure
High82 °F (Jun 9, 10:30 am)100% (Jun 15, 6:30 am)30.24 "Hg (Jun 15, 6:30 am)
Low63 °F (Jun 18, 3:30 am)47% (Jun 19, 9:30 am)29.95 "Hg (Jun 15, 3:00 pm)
Average74 °F76%30.09 "Hg
* Reported Jun 6 1:00 pm — Jun 21 1:30 pm, Saint-Denis. Weather by CustomWeather, © 2024

Note: Actual official high and low records may vary slightly from our data, if they occured in-between our weather recording intervals... More about our weather records

Saint-Denis Weather History for the Previous 24 Hours

Scroll right to see more
 ConditionsComfort  
Time TempWeatherWind HumidityBarometerVisibility
1:30 pm
Fri, Jun 21
77 °FScattered clouds.23 mph61%30.15 "HgN/A
1:00 pm77 °FPassing clouds.25 mph61%30.15 "HgN/A
12:30 pm77 °FPassing clouds.24 mph61%30.18 "HgN/A
12:00 pm77 °FScattered clouds.22 mph65%30.18 "HgN/A
11:30 am77 °FSunny.22 mph61%30.21 "Hg10 mi
11:00 am77 °FSunny.20 mph65%30.21 "Hg10 mi
10:30 am77 °FSunny.21 mph61%30.21 "Hg10 mi
10:00 am77 °FSunny.20 mph61%30.24 "Hg10 mi
9:30 am75 °FSunny.20 mph65%30.24 "Hg10 mi
9:00 am75 °FSunny.18 mph61%30.24 "Hg10 mi
8:30 am73 °FSunny.13 mph61%30.21 "Hg10 mi
8:00 am72 °FSunny.12 mph65%30.21 "Hg10 mi
7:30 am70 °FSunny.9 mph69%30.21 "Hg10 mi
7:00 am70 °FSunny.14 mph64%30.21 "Hg10 mi
6:30 am68 °FClear.13 mph73%30.18 "Hg10 mi
6:00 am70 °FClear.15 mph69%30.18 "Hg10 mi
5:30 am70 °FClear.13 mph73%30.18 "Hg10 mi
5:00 am70 °FClear.13 mph73%30.18 "Hg10 mi
4:30 am70 °FPassing clouds.16 mph69%30.18 "HgN/A
4:00 am70 °FClear.14 mph73%30.18 "Hg10 mi
3:30 am70 °FClear.14 mph73%30.18 "Hg10 mi
3:00 am72 °FClear.14 mph73%30.18 "Hg10 mi
2:30 am72 °FClear.15 mph69%30.18 "Hg10 mi
2:00 am72 °FPassing clouds.17 mph73%30.21 "HgN/A
1:30 am72 °FPassing clouds.17 mph78%30.21 "HgN/A
1:00 am72 °FPassing clouds.17 mph78%30.21 "HgN/A
12:30 am72 °FPartly cloudy.14 mph78%30.21 "HgN/A
12:00 am72 °FPassing clouds.17 mph73%30.21 "HgN/A
11:30 pm
Thu, Jun 20
72 °FPassing clouds.16 mph78%30.21 "HgN/A
11:00 pm72 °FPassing clouds.13 mph73%30.21 "HgN/A
10:30 pm72 °FPassing clouds.17 mph73%30.24 "HgN/A
10:00 pm72 °FPassing clouds.16 mph73%30.21 "HgN/A
9:30 pm72 °FPartly cloudy.17 mph73%30.21 "HgN/A
9:00 pm72 °FPassing clouds.18 mph73%30.21 "HgN/A
8:30 pm72 °FClear.18 mph73%30.21 "Hg10 mi
8:00 pm72 °FPassing clouds.14 mph73%30.21 "HgN/A
7:00 pm73 °FClear.17 mph69%30.18 "Hg10 mi
6:30 pm72 °FPassing clouds.14 mph78%30.18 "HgN/A
6:00 pm73 °FPassing clouds.17 mph74%30.18 "HgN/A
5:30 pm73 °FSunny.18 mph74%30.18 "Hg10 mi
5:00 pm75 °FSunny.17 mph65%30.18 "Hg10 mi
4:30 pm77 °FSunny.18 mph61%30.15 "Hg10 mi
4:00 pm79 °FSunny.14 mph51%30.15 "Hg10 mi
3:00 pm79 °FPartly sunny.20 mph48%30.15 "HgN/A
2:30 pm79 °FPassing clouds.21 mph54%30.15 "HgN/A
2:00 pm79 °FSunny.22 mph54%30.15 "Hg10 mi
Weather by CustomWeather, © 2024

See weather overview